Time,TemperatureF,DewpointF,PressureIn,WindDirection,WindDirectionDegrees,WindSpeedMPH,WindSpeedGustMPH,Humidity,HourlyPrecipIn,Conditions,Clouds,dailyrainin,SoftwareType,DateUTC
2013-08-08 00:01:00,71.0,70.0,29.98,North,9,0.0,0.0,97,0.00,,,0.54,,2013-08-08 04:01:00,
2013-08-08 00:22:00,71.0,70.0,29.98,North,9,0.0,0.0,97,0.00,,,0.54,,2013-08-08 04:22:00,
2013-08-08 00:43:00,71.0,70.0,29.98,North,9,0.0,0.0,97,0.00,,,0.54,,2013-08-08 04:43:00,
2013-08-08 00:53:00,71.0,70.0,29.98,North,9,0.0,0.0,97,0.00,,,0.54,,2013-08-08 04:53:00,
2013-08-08 01:02:00,71.0,70.0,29.98,North,9,0.0,0.0,97,0.00,,,0.54,,2013-08-08 05:02:00,
2013-08-08 01:11:00,71.0,70.0,29.98,North,9,0.0,0.0,97,0.00,,,0.54,,2013-08-08 05:11:00,
2013-08-08 02:22:00,71.0,70.0,29.97,North,9,0.0,0.0,98,0.00,,,0.53,,2013-08-08 06:22:00,
2013-08-08 02:43:00,71.0,70.0,29.96,North,5,0.0,0.0,98,0.00,,,0.53,,2013-08-08 06:43:00,
2013-08-08 02:52:00,71.0,70.0,29.96,North,5,0.0,0.0,98,0.00,,,0.53,,2013-08-08 06:52:00,
2013-08-08 03:02:00,71.0,70.0,29.96,North,5,0.0,0.0,98,0.00,,,0.53,,2013-08-08 07:02:00,
2013-08-08 03:12:00,71.0,70.0,29.96,North,9,0.0,0.0,98,0.00,,,0.53,,2013-08-08 07:12:00,
2013-08-08 03:22:00,71.0,70.0,29.96,North,9,0.0,0.0,98,0.00,,,0.53,,2013-08-08 07:22:00,
2013-08-08 03:32:00,70.0,69.0,29.96,North,9,0.0,0.0,98,0.00,,,0.53,,2013-08-08 07:32:00,
2013-08-08 03:43:00,70.0,69.0,29.96,North,9,0.0,0.0,98,0.00,,,0.53,,2013-08-08 07:43:00,
2013-08-08 03:53:00,70.0,69.0,29.96,North,9,0.0,0.0,98,0.00,,,0.53,,2013-08-08 07:53:00,
2013-08-08 04:02:00,70.0,69.0,29.96,North,9,0.0,0.0,98,0.00,,,0.53,,2013-08-08 08:02:00,
2013-08-08 04:11:00,70.0,69.0,29.96,North,9,0.0,0.0,98,0.00,,,0.53,,2013-08-08 08:11:00,
2013-08-08 04:22:00,70.0,69.0,29.96,North,9,0.0,0.0,98,0.00,,,0.53,,2013-08-08 08:22:00,
2013-08-08 04:32:00,70.0,69.0,29.96,North,9,0.0,0.0,98,0.00,,,0.53,,2013-08-08 08:32:00,
2013-08-08 04:43:00,70.0,69.0,29.96,North,9,0.0,0.0,98,0.00,,,0.53,,2013-08-08 08:43:00,
2013-08-08 04:53:00,70.0,69.0,29.96,North,9,0.0,0.0,98,0.00,,,0.53,,2013-08-08 08:53:00,
2013-08-08 05:02:00,70.0,69.0,29.96,North,9,0.0,0.0,98,0.01,,,0.54,,2013-08-08 09:02:00,
2013-08-08 05:12:00,70.0,69.0,29.96,North,9,0.0,0.0,98,0.01,,,0.54,,2013-08-08 09:12:00,
2013-08-08 05:22:00,70.0,69.0,29.96,North,9,0.0,0.0,98,0.01,,,0.54,,2013-08-08 09:22:00,
2013-08-08 05:32:00,70.0,69.0,29.96,North,9,0.0,0.0,98,0.01,,,0.54,,2013-08-08 09:32:00,
2013-08-08 05:53:00,70.0,69.0,29.96,North,9,0.0,0.0,98,0.01,,,0.54,,2013-08-08 09:53:00,
2013-08-08 06:01:00,70.0,69.0,29.96,North,9,0.0,0.0,98,0.00,,,0.54,,2013-08-08 10:01:00,
2013-08-08 06:12:00,70.0,69.0,29.96,North,9,0.0,0.0,98,0.00,,,0.54,,2013-08-08 10:12:00,
2013-08-08 06:22:00,70.0,69.0,29.96,North,9,0.0,0.0,98,0.00,,,0.54,,2013-08-08 10:22:00,
2013-08-08 06:32:00,70.0,69.0,29.96,North,9,0.0,0.0,98,0.00,,,0.54,,2013-08-08 10:32:00,
2013-08-08 06:52:00,70.0,69.0,29.96,North,9,0.0,0.0,98,0.00,,,0.54,,2013-08-08 10:52:00,
2013-08-08 07:02:00,71.0,70.0,29.96,North,9,0.0,0.0,98,0.00,,,0.54,,2013-08-08 11:02:00,
2013-08-08 07:22:00,71.0,70.0,29.96,North,9,0.0,0.0,98,0.00,,,0.54,,2013-08-08 11:22:00,
2013-08-08 07:32:00,71.0,71.0,29.96,North,9,0.0,0.0,99,0.00,,,0.53,,2013-08-08 11:32:00,
2013-08-08 07:43:00,71.0,71.0,29.97,North,9,0.0,0.0,99,0.00,,,0.53,,2013-08-08 11:43:00,
2013-08-08 07:52:00,71.0,71.0,29.97,North,9,0.0,0.0,99,0.00,,,0.53,,2013-08-08 11:52:00,
2013-08-08 08:22:00,71.0,71.0,29.98,North,9,0.0,0.0,99,0.00,,,0.53,,2013-08-08 12:22:00,
2013-08-08 08:32:00,71.0,71.0,29.99,North,9,0.0,0.0,99,0.00,,,0.53,,2013-08-08 12:32:00,
2013-08-08 08:43:00,71.0,71.0,29.99,North,9,0.0,0.0,99,0.00,,,0.53,,2013-08-08 12:43:00,
2013-08-08 08:53:00,71.0,71.0,29.99,North,9,0.0,0.0,99,0.00,,,0.53,,2013-08-08 12:53:00,
2013-08-08 09:01:00,72.0,72.0,29.99,North,9,0.0,3.0,99,0.00,,,0.53,,2013-08-08 13:01:00,
2013-08-08 09:22:00,72.0,72.0,29.99,North,5,0.0,1.0,99,0.00,,,0.53,,2013-08-08 13:22:00,
2013-08-08 09:32:00,72.0,72.0,29.99,North,5,0.0,1.0,99,0.00,,,0.53,,2013-08-08 13:32:00,
2013-08-08 09:43:00,73.0,72.0,29.99,North,5,0.0,2.0,98,0.00,,,0.53,,2013-08-08 13:43:00,
2013-08-08 09:52:00,73.0,72.0,29.99,North,5,0.0,2.0,98,0.00,,,0.53,,2013-08-08 13:52:00,
2013-08-08 10:02:00,73.0,72.0,29.99,North,5,1.0,4.0,98,0.00,,,0.53,,2013-08-08 14:02:00,
2013-08-08 10:22:00,74.0,73.0,29.99,North,5,0.0,3.0,96,0.00,,,0.53,,2013-08-08 14:22:00,
2013-08-08 10:32:00,75.0,73.0,29.99,North,5,0.0,4.0,93,0.00,,,0.51,,2013-08-08 14:32:00,
2013-08-08 10:43:00,76.0,73.0,29.99,North,5,0.0,3.0,91,0.00,,,0.51,,2013-08-08 14:43:00,
2013-08-08 10:53:00,76.0,73.0,29.99,North,5,0.0,3.0,91,0.00,,,0.51,,2013-08-08 14:53:00,
2013-08-08 11:02:00,77.0,74.0,29.99,North,5,1.0,5.0,89,0.00,,,0.51,,2013-08-08 15:02:00,
2013-08-08 11:12:00,77.0,74.0,29.99,North,5,1.0,5.0,89,0.00,,,0.51,,2013-08-08 15:12:00,
2013-08-08 11:22:00,78.0,73.0,30.00,North,5,0.0,5.0,86,0.00,,,0.51,,2013-08-08 15:22:00,
2013-08-08 11:32:00,78.0,73.0,30.00,North,5,0.0,5.0,86,0.00,,,0.51,,2013-08-08 15:32:00,
2013-08-08 11:43:00,80.0,72.0,30.00,North,5,3.0,9.0,77,0.00,,,0.39,,2013-08-08 15:43:00,
2013-08-08 11:53:00,80.0,72.0,30.00,North,5,3.0,9.0,77,0.00,,,0.39,,2013-08-08 15:53:00,
2013-08-08 12:02:00,80.0,73.0,30.00,North,5,1.0,9.0,79,0.00,,,0.39,,2013-08-08 16:02:00,
2013-08-08 12:22:00,80.0,72.0,30.01,North,5,2.0,8.0,78,0.00,,,0.39,,2013-08-08 16:22:00,
2013-08-08 12:32:00,80.0,73.0,30.01,North,5,2.0,6.0,79,0.00,,,0.37,,2013-08-08 16:32:00,
2013-08-08 12:42:00,80.0,73.0,30.01,North,5,3.0,7.0,80,0.00,,,0.37,,2013-08-08 16:42:00,
2013-08-08 12:52:00,80.0,73.0,30.01,North,5,3.0,7.0,80,0.00,,,0.37,,2013-08-08 16:52:00,
2013-08-08 13:21:00,81.0,73.0,30.00,North,5,5.0,10.0,77,0.00,,,0.37,,2013-08-08 17:21:00,
2013-08-08 13:32:00,81.0,73.0,30.01,North,5,3.0,7.0,78,0.00,,,0.28,,2013-08-08 17:32:00,
2013-08-08 13:43:00,80.0,73.0,30.01,North,5,2.0,7.0,79,0.00,,,0.28,,2013-08-08 17:43:00,
2013-08-08 13:52:00,80.0,73.0,30.01,North,5,2.0,7.0,79,0.00,,,0.28,,2013-08-08 17:52:00,
2013-08-08 14:22:00,81.0,73.0,30.00,North,5,2.0,10.0,77,0.00,,,0.28,,2013-08-08 18:22:00,
2013-08-08 14:32:00,83.0,75.0,29.99,North,5,3.0,9.0,76,0.00,,,0.20,,2013-08-08 18:32:00,
2013-08-08 14:43:00,82.0,74.0,29.99,North,5,3.0,9.0,76,0.00,,,0.20,,2013-08-08 18:43:00,
2013-08-08 14:52:00,82.0,74.0,29.99,North,5,3.0,9.0,76,0.00,,,0.20,,2013-08-08 18:52:00,
2013-08-08 15:01:00,82.0,74.0,29.99,North,5,3.0,9.0,76,0.00,,,0.20,,2013-08-08 19:01:00,
2013-08-08 15:12:00,82.0,74.0,29.98,North,5,1.0,9.0,76,0.00,,,0.20,,2013-08-08 19:12:00,
2013-08-08 15:22:00,82.0,74.0,29.98,North,5,1.0,9.0,76,0.00,,,0.20,,2013-08-08 19:22:00,
2013-08-08 15:32:00,82.0,74.0,29.97,North,5,2.0,7.0,77,0.00,,,0.19,,2013-08-08 19:32:00,
2013-08-08 15:43:00,82.0,74.0,29.97,North,5,3.0,5.0,77,0.00,,,0.19,,2013-08-08 19:43:00,
2013-08-08 15:55:00,82.0,74.0,29.97,North,5,3.0,5.0,77,0.00,,,0.19,,2013-08-08 19:55:00,
2013-08-08 16:02:00,82.0,74.0,29.97,North,5,3.0,9.0,77,0.00,,,0.19,,2013-08-08 20:02:00,
2013-08-08 16:22:00,82.0,74.0,29.97,North,5,1.0,5.0,78,0.00,,,0.19,,2013-08-08 20:22:00,
2013-08-08 16:32:00,82.0,74.0,29.96,North,5,3.0,6.0,77,0.00,,,0.11,,2013-08-08 20:32:00,
2013-08-08 16:42:00,82.0,74.0,29.96,North,5,1.0,6.0,77,0.00,,,0.11,,2013-08-08 20:42:00,
2013-08-08 17:01:00,83.0,75.0,29.96,North,5,3.0,8.0,77,0.00,,,0.11,,2013-08-08 21:01:00,
2013-08-08 17:45:00,83.0,74.0,29.95,North,5,1.0,6.0,75,0.00,,,0.10,,2013-08-08 21:45:00,
2013-08-08 18:05:00,83.0,75.0,29.95,North,5,0.0,4.0,77,0.00,,,0.10,,2013-08-08 22:05:00,
2013-08-08 18:16:00,83.0,75.0,29.95,North,5,0.0,4.0,77,0.00,,,0.10,,2013-08-08 22:16:00,
2013-08-08 18:25:00,83.0,75.0,29.95,North,5,0.0,4.0,77,0.00,,,0.10,,2013-08-08 22:25:00,
2013-08-08 18:35:00,83.0,75.0,29.95,North,5,1.0,5.0,78,0.00,,,0.10,,2013-08-08 22:35:00,
2013-08-08 18:47:00,83.0,75.0,29.95,North,5,0.0,5.0,78,0.00,,,0.10,,2013-08-08 22:47:00,
2013-08-08 18:56:00,83.0,75.0,29.95,North,5,0.0,5.0,78,0.00,,,0.10,,2013-08-08 22:56:00,
2013-08-08 19:05:00,82.0,74.0,29.95,North,5,2.0,6.0,78,0.00,,,0.10,,2013-08-08 23:05:00,
2013-08-08 19:37:00,81.0,76.0,29.95,North,5,0.0,2.0,84,0.00,,,0.10,,2013-08-08 23:37:00,
2013-08-08 19:46:00,81.0,76.0,29.96,North,5,0.0,0.0,85,0.00,,,0.10,,2013-08-08 23:46:00,
2013-08-08 20:05:00,80.0,76.0,29.96,North,5,0.0,0.0,87,0.00,,,0.10,,2013-08-09 00:05:00,
2013-08-08 20:15:00,79.0,75.0,29.96,North,5,0.0,0.0,88,0.00,,,0.10,,2013-08-09 00:15:00,
2013-08-08 20:24:00,79.0,75.0,29.96,North,5,0.0,0.0,88,0.00,,,0.10,,2013-08-09 00:24:00,
2013-08-08 20:35:00,78.0,74.0,29.96,North,5,0.0,0.0,89,0.00,,,0.09,,2013-08-09 00:35:00,
2013-08-08 20:45:00,77.0,74.0,29.96,North,5,0.0,0.0,90,0.00,,,0.09,,2013-08-09 00:45:00,
2013-08-08 20:54:00,77.0,74.0,29.96,North,5,0.0,0.0,90,0.00,,,0.09,,2013-08-09 00:54:00,
2013-08-08 21:03:00,77.0,74.0,29.96,North,5,0.0,0.0,91,0.00,,,0.09,,2013-08-09 01:03:00,
2013-08-08 21:36:00,75.0,73.0,29.97,North,5,0.0,0.0,93,0.00,,,0.01,,2013-08-09 01:36:00,
2013-08-08 22:04:00,75.0,73.0,29.97,North,5,0.0,0.0,95,0.00,,,0.01,,2013-08-09 02:04:00,
2013-08-08 22:25:00,74.0,72.0,29.98,North,5,0.0,1.0,95,0.00,,,0.01,,2013-08-09 02:25:00,
2013-08-08 22:37:00,74.0,73.0,29.97,North,5,0.0,1.0,96,0.00,,,0.01,,2013-08-09 02:37:00,
2013-08-08 22:55:00,74.0,73.0,29.97,North,5,0.0,0.0,96,0.00,,,0.01,,2013-08-09 02:55:00,
2013-08-08 23:24:00,74.0,73.0,29.96,North,5,0.0,0.0,96,0.00,,,0.01,,2013-08-09 03:24:00,
2013-08-08 23:34:00,74.0,73.0,29.95,North,5,0.0,0.0,96,0.00,,,0.01,,2013-08-09 03:34:00,
2013-08-08 23:53:00,74.0,73.0,29.95,North,5,0.0,0.0,96,0.00,,,0.01,,2013-08-09 03:53:00,